Terminal Aerodrome Forecast
Issued by NWS

Home | Current Version | Previous Version | Text Only | Print | Product List | Glossary On
Versions: 1 2 3 4 5 6 7 8 9 10 11 12 13 14 15 16 17 18 19 20
000
FTUS46 KLOX 080533
TAFBUR
TAF
KBUR 080533Z 0806/0906 12006KT P6SM SKC
     FM081000 VRB03KT P6SM SKC
     FM081300 VRB04KT 6SM -DZ BR BKN010 OVC020
     FM081700 16008KT P6SM SKC
     FM090500 12008KT P6SM SKC=

USA.gov is the U.S. government's official web portal to all federal, state and local government web resources and services.